Waterford Township, MI

10:01 PM EDT on August 29, 2016 (GMT -0400)
Oakland County International

Weather History for KPTK - February, 2014

Change the Weather History Date:

Thursday, February 27, 2014

  Actual Average Record
Temperature  
Mean Temperature 6 °F -  
Max Temperature 12 °F 34 °F 50 °F (1997)
Min Temperature -2 °F 20 °F -11 °F (2015)
Degree Days  
Heating Degree Days 59    
Moisture  
Dew Point -3 °F    
Average Humidity 63    
Maximum Humidity 85    
Minimum Humidity 38    
Precipitation  
Precipitation 0.00 in - - ()
Snow  
Snow 0.00 in - - ()
Snow Depth 11.00 in    
Sea Level Pressure  
Sea Level Pressure 29.74 in    
Wind  
Wind Speed 12 mph (West)    
Max Wind Speed 29 mph    
Max Gust Speed 39 mph    
Visibility 5 miles    
Events Snow    
Averages and records for this station are not official NWS values.
T = Trace of Precipitation, MM = Missing Value Source: NWS Daily Summary

Daily Weather History Graph

Daily Weather History Graph

Search for Another Location

Airport or City:

Trip Planner

Search our weather history database for the weather conditions in past years. The results will help you decide how hot, cold, wet, or windy it might be!

Date:

Astronomy

Feb. 27, 2014 Rise Set
Actual Time 7:12 AM EST 6:20 PM EST
Civil Twilight 6:44 AM EST 6:49 PM EST
Nautical Twilight 6:11 AM EST 7:21 PM EST
Astronomical Twilight 5:38 AM EST 7:54 PM EST
Moon 5:46 AM EST (2/27) 4:44 PM EST (2/27)
Length of Visible Light 12h 05m
Length of Day
11h 08m
Waning Crescent, 4% of the Moon is Illuminated
Feb 27
Waning Crescent
Mar 1
New
Mar 8
First Quarter
Mar 16
Full
Mar 23
Last Quarter

Hourly Weather History & Observations

Time (EST) Temp. Windchill Dew Point Humidity Pressure Visibility Wind Dir Wind Speed Gust Speed Precip Events Conditions
12:53 AM 9.0 °F -3.2 °F -0.9 °F 64% 29.59 in 10.0 mi SW 8.1 mph - N/A   Partly Cloudy
1:53 AM 10.0 °F -3.7 °F -0.9 °F 61% 29.56 in 10.0 mi SW 10.4 mph 17.3 mph N/A   Overcast
2:41 AM 10.4 °F -3.3 °F 1.4 °F 67% 29.49 in 3.0 mi WSW 10.4 mph - 0.00 in Snow Light Snow
2:48 AM 10.4 °F -2.4 °F 3.2 °F 73% 29.48 in 2.5 mi SW 9.2 mph - 0.00 in Snow Light Snow
2:53 AM 10.0 °F -1.9 °F 3.0 °F 73% 29.53 in 2.0 mi SW 8.1 mph - 0.00 in Snow Light Snow
3:01 AM 10.4 °F -1.5 °F 3.2 °F 73% 29.47 in 1.8 mi SW 8.1 mph - 0.00 in Snow Light Snow
3:16 AM 10.4 °F -3.3 °F 3.2 °F 73% 29.47 in 2.5 mi SW 10.4 mph - 0.00 in Snow Light Snow
3:24 AM 10.4 °F -2.4 °F 3.2 °F 73% 29.46 in 3.0 mi SW 9.2 mph - 0.00 in Snow Light Snow
3:51 AM 10.4 °F -1.5 °F 5.0 °F 79% 29.46 in 2.5 mi SSW 8.1 mph - 0.00 in Snow Light Snow
3:53 AM 10.0 °F -0.9 °F 5.0 °F 80% 29.51 in 2.5 mi SSW 6.9 mph - 0.00 in Snow Light Snow
4:21 AM 10.4 °F -0.4 °F 5.0 °F 79% 29.46 in 1.5 mi SW 6.9 mph - 0.00 in Snow Light Snow
4:41 AM 10.4 °F -0.4 °F 6.8 °F 85% 29.46 in 2.0 mi SW 6.9 mph - 0.00 in Snow Light Snow
4:47 AM 10.4 °F -1.5 °F 6.8 °F 85% 29.46 in 3.0 mi WSW 8.1 mph - 0.00 in Snow Light Snow
4:53 AM 10.9 °F -0.8 °F 6.1 °F 81% 29.52 in 5.0 mi WSW 8.1 mph - 0.00 in Snow Light Snow
5:26 AM 12.2 °F -0.2 °F 6.8 °F 79% 29.48 in 2.0 mi WSW 9.2 mph 18.4 mph 0.00 in Snow Light Snow
5:36 AM 12.2 °F -3.7 °F 6.8 °F 79% 29.48 in 4.0 mi West 15.0 mph - 0.00 in Snow Light Snow
5:53 AM 12.0 °F -4.0 °F 6.1 °F 77% 29.55 in 6.0 mi West 15.0 mph 24.2 mph 0.00 in Snow Light Snow
6:53 AM 10.9 °F -6.5 °F 3.0 °F 70% 29.58 in 4.0 mi WNW 17.3 mph 28.8 mph 0.00 in Snow Light Snow
7:02 AM 10.4 °F -9.9 °F 3.2 °F 73% 29.54 in 1.2 mi West 24.2 mph 31.1 mph 0.00 in Snow Light Snow
7:10 AM 10.4 °F -9.1 °F 3.2 °F 73% 29.55 in 0.5 mi WNW 21.9 mph 31.1 mph 0.00 in Snow Snow
7:30 AM 8.6 °F -11.4 °F 1.4 °F 73% 29.58 in 3.0 mi NNW 21.9 mph 28.8 mph 0.00 in Snow Light Snow
7:43 AM 6.8 °F -11.8 °F -0.4 °F 72% 29.59 in 8.0 mi NW 17.3 mph 28.8 mph 0.00 in   Mostly Cloudy
7:53 AM 7.0 °F -11.6 °F -0.9 °F 70% 29.67 in 8.0 mi NW 17.3 mph 23.0 mph 0.00 in   Mostly Cloudy
8:38 AM 6.8 °F -13.4 °F -5.8 °F 56% 29.66 in 2.5 mi NW 20.7 mph 29.9 mph 0.00 in Snow Light Snow
8:40 AM 6.8 °F -14.7 °F -5.8 °F 56% 29.67 in 1.5 mi NW 24.2 mph 29.9 mph 0.00 in Snow Light Snow
8:53 AM 3.9 °F -16.6 °F -2.9 °F 73% 29.75 in 0.5 mi NNW 19.6 mph 33.4 mph 0.00 in Snow Snow
9:11 AM 5.0 °F -13.0 °F -5.8 °F 61% 29.71 in 3.0 mi NW 15.0 mph 32.2 mph 0.00 in Snow Light Snow
9:18 AM 5.0 °F -15.7 °F -7.6 °F 56% 29.71 in 6.0 mi NW 20.7 mph 28.8 mph 0.00 in Snow Light Snow
9:53 AM 6.1 °F -12.2 °F -11.0 °F 45% 29.81 in 6.0 mi NW 16.1 mph 29.9 mph 0.00 in Snow Blowing Snow
10:53 AM 6.1 °F -16.5 °F -13.0 °F 41% 29.86 in 6.0 mi NW 26.5 mph 39.1 mph N/A Snow Blowing Snow
11:10 AM 6.8 °F -15.9 °F -7.6 °F 52% 29.81 in 1.5 mi WNW 27.6 mph 34.5 mph 0.00 in Snow Light Snow
11:14 AM 5.0 °F -15.7 °F -5.8 °F 61% 29.82 in 0.8 mi NW 20.7 mph 34.5 mph 0.00 in Snow Light Snow
11:33 AM 6.8 °F -13.4 °F -5.8 °F 56% 29.83 in 3.0 mi NW 20.7 mph 27.6 mph 0.00 in Snow Light Snow
11:49 AM 5.0 °F -15.7 °F -9.4 °F 52% 29.85 in 7.0 mi WNW 20.7 mph 27.6 mph 0.00 in   Mostly Cloudy
11:53 AM 6.1 °F -13.8 °F -9.9 °F 48% 29.91 in 8.0 mi WNW 19.6 mph 32.2 mph 0.00 in   Mostly Cloudy
12:53 PM 6.1 °F -17.2 °F -11.9 °F 44% 29.95 in 6.0 mi WNW 28.8 mph 36.8 mph N/A Snow Blowing Snow
1:53 PM 7.0 °F -14.9 °F -14.1 °F 38% 29.99 in 10.0 mi WNW 25.3 mph 33.4 mph N/A   Scattered Clouds
2:53 PM 7.0 °F -12.1 °F -13.0 °F 40% 30.01 in 10.0 mi WNW 18.4 mph 28.8 mph N/A   Mostly Cloudy
3:53 PM 7.0 °F -11.6 °F -14.1 °F 38% 30.05 in 10.0 mi NW 17.3 mph 27.6 mph N/A   Mostly Cloudy
4:53 PM 7.0 °F -10.4 °F -11.9 °F 42% 30.08 in 10.0 mi WNW 15.0 mph - N/A   Scattered Clouds
5:53 PM 5.0 °F -10.8 °F -11.0 °F 48% 30.11 in 10.0 mi NW 11.5 mph - N/A   Scattered Clouds
6:53 PM 3.9 °F -8.2 °F -11.9 °F 48% 30.13 in 10.0 mi NW 6.9 mph - N/A   Scattered Clouds
7:53 PM 3.0 °F -8.0 °F -11.9 °F 50% 30.17 in 10.0 mi WNW 5.8 mph - N/A   Clear
8:53 PM 1.9 °F -5.6 °F -11.9 °F 52% 30.19 in 10.0 mi NW 3.5 mph - N/A   Clear
9:53 PM -0.0 °F -7.9 °F -13.0 °F 54% 30.21 in 10.0 mi WNW 3.5 mph - N/A   Clear
10:53 PM -0.9 °F - -13.0 °F 57% 30.22 in 10.0 mi Calm Calm - N/A   Clear
11:53 PM -2.9 °F - -11.9 °F 65% 30.24 in 10.0 mi Calm Calm - N/A   Clear